St. Johns, AZ

4:23 PM MST on March 27, 2017 (GMT -0700)
Saint Johns Industrial

Weather History for KSJN - October, 2013

Change the Weather History Date:

Wednesday, October 23, 2013

  Actual Average (KLSB) Record (KLSB)
Temperature  
Mean Temperature 46 °F -  
Max Temperature 66 °F 73 °F 78 °F (2013)
Min Temperature 25 °F 42 °F 41 °F (2015)
Degree Days  
Heating Degree Days 20    
Moisture  
Dew Point 18 °F    
Average Humidity 29    
Maximum Humidity 61    
Minimum Humidity 11    
Precipitation  
Precipitation 0.00 in - - ()
Sea Level Pressure  
Sea Level Pressure 30.03 in    
Wind  
Wind Speed 3 mph (South)    
Max Wind Speed 10 mph    
Max Gust Speed -    
Visibility 10 miles    
Events      
Averages and records for this station are not official NWS values.
T = Trace of Precipitation, MM = Missing Value Source: NWS Daily Summary

Daily Weather History Graph

Daily Weather History Graph

Search for Another Location

Airport or City:

Trip Planner

Search our weather history database for the weather conditions in past years. The results will help you decide how hot, cold, wet, or windy it might be!

Date:

Astronomy

Oct. 23, 2013 Rise Set
Actual Time 6:30 AM MST 5:33 PM MST
Civil Twilight 6:04 AM MST 5:58 PM MST
Nautical Twilight 5:34 AM MST 6:28 PM MST
Astronomical Twilight 5:05 AM MST 6:57 PM MST
Moon 9:13 PM MST (10/23) 10:43 AM MST (10/23)
Length of Visible Light 11h 54m
Length of Day
11h 03m
Waning Gibbous, 78% of the Moon is Illuminated
Oct 23
Waning Gibbous
Oct 26
Last Quarter
Nov 3
New
Nov 9
First Quarter
Nov 17
Full

Hourly Weather History & Observations

Time (MST) Temp. Windchill Dew Point Humidity Pressure Visibility Wind Dir Wind Speed Gust Speed Precip Events Conditions
12:54 AM 44.1 °F 42.5 °F 18.0 °F 35% 30.04 in 10.0 mi South 3.5 mph - N/A   Clear
1:54 AM 42.1 °F 40.2 °F 18.0 °F 38% 30.02 in 10.0 mi South 3.5 mph - N/A   Clear
2:54 AM 39.0 °F - 17.1 °F 41% 30.03 in 10.0 mi Calm Calm - N/A   Clear
3:54 AM 32.0 °F - 15.1 °F 50% 30.06 in 10.0 mi Calm Calm - N/A   Clear
4:54 AM 30.9 °F - 15.1 °F 52% 30.09 in 10.0 mi Calm Calm - N/A   Clear
5:54 AM 28.0 °F - 14.0 °F 56% 30.14 in 10.0 mi Calm Calm - N/A   Clear
6:54 AM 32.0 °F - 18.0 °F 56% 30.15 in 10.0 mi Calm Calm - N/A   Clear
7:54 AM 39.9 °F - 19.0 °F 43% 30.14 in 10.0 mi Calm Calm - N/A   Clear
8:54 AM 52.0 °F - 21.9 °F 31% 30.11 in 10.0 mi NNE 3.5 mph - N/A   Clear
9:54 AM 62.1 °F - 23.0 °F 22% 30.05 in 10.0 mi NE 3.5 mph - N/A   Clear
10:54 AM 68.0 °F - 19.9 °F 16% 30.01 in 10.0 mi Calm Calm - N/A   Clear
11:54 AM 71.1 °F - 19.0 °F 14% 29.97 in 10.0 mi SE 8.1 mph - N/A   Clear
12:54 PM 72.0 °F - 17.1 °F 12% 29.94 in 10.0 mi ESE 10.4 mph - N/A   Clear
1:54 PM 73.9 °F - 18.0 °F 12% 29.93 in 10.0 mi Variable 4.6 mph - N/A   Clear
2:54 PM 73.0 °F - 16.0 °F 11% 29.94 in 10.0 mi WSW 4.6 mph - N/A   Clear
3:54 PM 73.0 °F - 16.0 °F 11% 29.95 in 10.0 mi Calm Calm - N/A   Clear
4:54 PM 71.1 °F - 15.1 °F 12% 29.96 in 10.0 mi NNW 5.8 mph - N/A   Clear
5:54 PM 64.0 °F - 15.1 °F 15% 30.01 in 10.0 mi NW 6.9 mph - N/A   Clear
6:54 PM 61.0 °F - 15.1 °F 17% 30.01 in 10.0 mi West 3.5 mph - N/A   Clear
7:54 PM 55.9 °F - 16.0 °F 21% 30.02 in 10.0 mi SSE 4.6 mph - N/A   Clear
8:54 PM 55.0 °F - 17.1 °F 23% 29.99 in 10.0 mi South 9.2 mph - N/A   Clear
9:54 PM 55.0 °F - 21.0 °F 27% 29.97 in 10.0 mi South 9.2 mph - N/A   Clear
10:54 PM 53.1 °F - 23.0 °F 31% 29.96 in 10.0 mi Variable 4.6 mph - N/A   Clear
11:54 PM 46.9 °F - 21.0 °F 36% 29.97 in 10.0 mi South 3.5 mph - N/A   Clear